Погода в Венцелеве

Россия / Еврейская автономная область     47°46′57″N   131°56′06″E
темп.,
°C
ветер,
м/с
пор.,
м/с
влажн.,
%
обл.,
%
осадки,
мм/ч
давл.,
гПа
погр.,
м
2 марта, вт
вт201:00−17юз1284100 0.0 103020
04:00−19сз1292100 0.0 102920
07:00−21с118653 0.0 103020
10:00−18сз227127 0.0 103070
13:00−15сз22640 0.0 1029249
16:00−13юз23690 0.0 1028450
19:00−16ю23820 0.0 102820
22:00−18ю23850 0.0 102920
3 марта, ср
ср301:00−19ююв238925 0.0 102720
04:00−20юв239053 0.0 102721
07:00−20юв239280 0.0 102547
10:00−16юв368987 0.0 1025307
13:00−11юв4782100 0.0 1022540
16:00−8ююв4781100 0.0 1019658
19:00−10юв3491100 0.0 101755
22:00−10юв1192100 0.0 101721
4 марта, чт
чт401:00−10ссв3396100 0.3 101459
04:00−11ссв239697 1.0 101455
07:00−12ссв229687 0.1 101426
10:00−10всв119492 0.1 101479
13:00−6юв129199 0.1 1012241
16:00−4с109499 0.3 1010107
19:00−4з1197100 0.1 101023
22:00−3зюз4996100 0.5 1011208
5 марта, пт
пт501:00−10зсз6108367 0.0 1014179
04:00−15зсз598440 0.0 1018162
07:00−16зсз6107787 0.0 1022276
10:00−17сз6106960 0.0 1027577
13:00−17зсз710600 0.0 1028802
16:00−17зсз812620 0.0 10291047
19:00−19сз613700 0.0 1030563
22:00−22зсз410790 0.0 1033235
6 марта, сб
сб601:00−21зсз511820 0.0 1033274
04:00−21з410850 0.0 1033190
07:00−21з48850 0.0 1034128
10:00−18зсз612790 0.0 1034870
13:00−13зсз711660 0.0 10341082
16:00−10з48660 0.0 10321210
19:00−13зюз512700 0.0 1031238
22:00−14з613732 0.0 1033311